Weather in North Syracuse

United States     43°07′23″N   76°08′30″W
temp.,
°C
wind,
m/s
gust,
m/s
humid.,
%
clouds,
%
prec.,
mm/h
press.,
hPa
HPBL,
m
25 may, wed
wed2523:00+14sw1177100 0.0 102537
02:00+11s228985 0.0 102630
05:00+10s2291100 0.0 102628
08:00+14ese1178100 0.0 1027219
11:00+20sse2363100 0.0 10261282
14:00+21s346097 0.1 10251402
17:00+21sse456193 0.1 10231410
20:00+18se2476100 0.1 102373
26 may, thu
thu2623:00+17s61365100 0.0 1023715
02:00+15s71563100 0.0 1022808
05:00+14s71758100 0.0 1021746
08:00+14s61561100 0.0 1021692
11:00+18s81467100 0.0 1019671
14:00+23ssw81264100 0.0 1017916
17:00+21ssw81369100 0.0 1015834
20:00+19s9167681 0.0 1014581
27 may, fri
fri2723:00+18s81682100 0.1 1014646
02:00+17s81686100 0.4 1013594
05:00+18ssw7158696 0.1 1011680
08:00+19s71684100 0.2 1010886
11:00+20ssw71482100 0.1 1009896
14:00+22ssw61085100 1.8 10081012
17:00+22ssw5982100 1.9 1007863
20:00+18ssw3690100 3.1 1007138
28 may, sat
sat2823:00+16w1195100 1.8 100719
02:00+16sse2295100 2.8 100542
05:00+15wsw1196100 0.7 100526
08:00+14wsw2498100 1.8 1007276
11:00+15wnw3698100 4.7 1008471
14:00+17nw578961 5.2 1008733
17:00+18nw467697 0.1 10091062
20:00+15w24875 0.3 101195
29 may, sun
sun2923:00+12sw119344 0.0 101311
02:00+11sw23925 0.0 101466
05:00+10sw23946 0.0 101553
08:00+14sw238289 0.0 1017257
11:00+19wsw22645 0.0 1017817
14:00+22wsw235590 0.0 10161399
17:00+23sw245686 0.0 10161334
20:00+19se22755 0.0 101513